GW4788 Weather Reports


time (UTC)temp
F
wind
direction
speed
knots
gust
knots
rain 1hr
in
rain 24hr
in
rain mn
in
humidity
%
barometer
mb
20260507020539 50 295 0.0 0.9 0.00 0.94 0.55 68 1013.7
20260507015519 51 301 0.0 0.9 0.00 0.99 0.55 64 1013.6
20260507014539 52 242 0.0 0.9 0.00 1.03 0.55 64 1013.4
20260507013521 52 219 0.0 1.7 0.00 1.09 0.55 64 1013.4
20260507012519 52 56 0.0 1.7 0.00 1.11 0.55 64 1013.4
20260507011520 52 204 0.0 0.9 0.00 1.16 0.55 64 1013.3
20260507010517 52 238 0.0 1.7 0.00 1.18 0.55 64 1013.2
20260507005517 52 254 0.0 1.7 0.00 1.18 0.55 63 1013.0
20260507004540 52 235 0.0 0.9 0.00 1.19 0.55 63 1012.9
20260507003520 52 227 0.0 1.7 0.00 1.19 0.55 62 1012.8
20260507002537 53 217 0.9 0.9 0.00 1.21 0.55 63 1012.7
20260507001557 53 208 0.9 1.7 0.00 1.21 0.55 62 1012.6
20260507000521 54 220 0.9 1.7 0.00 1.21 0.55 62 1012.5
20260506235540 54 212 0.0 0.9 0.00 1.21 0.55 61 1012.5
20260506234518 54 282 0.9 1.7 0.00 1.22 0.55 60 1012.5
20260506233518 55 187 0.0 1.7 0.00 1.25 0.55 60 1012.3
20260506232558 55 14 0.9 3.5 0.00 1.26 0.55 60 1012.4
20260506231558 55 270 0.9 1.7 0.00 1.26 0.55 59 1012.6
20260506230518 55 228 0.9 4.3 0.00 1.27 0.55 59 1012.7
20260506225518 55 260 0.9 1.7 0.00 1.28 0.55 61 1012.7
20260506224539 55 35 0.9 2.6 0.00 1.28 0.55 60 1012.7
20260506223519 55 212 0.9 1.7 0.00 1.28 0.55 59 1012.9
20260506222518 55 300 0.9 2.6 0.00 1.29 0.55 59 1012.9
20260506221539 56 210 0.9 1.7 0.00 1.32 0.55 59 1012.9
20260506220539 56 40 0.9 2.6 0.00 1.35 0.55 58 1012.4
20260506215519 56 26 0.9 3.5 0.00 1.39 0.55 57 1012.3
20260506214539 56 294 0.9 2.6 0.00 1.43 0.55 58 1012.2
20260506213519 56 18 1.7 7.0 0.00 1.50 0.55 57 1012.0
20260506212519 56 11 0.9 2.6 0.00 1.56 0.55 60 1012.0
20260506211540 56 27 0.9 3.5 0.00 1.76 0.55 59 1012.0
20260506210517 56 19 0.9 1.7 0.00 1.95 0.55 58 1011.9
20260506205516 57 292 0.9 3.5 0.00 1.95 0.55 59 1012.0
20260506204517 57 8 0.9 2.6 0.00 1.95 0.55 59 1011.9
20260506203541 57 314 0.9 1.7 0.00 1.95 0.55 59 1012.0
20260506202520 57 313 0.9 2.6 0.00 1.95 0.55 57 1011.7
20260506201518 57 357 0.9 4.3 0.00 1.95 0.55 59 1011.5
20260506200517 57 13 0.9 3.5 0.00 1.95 0.55 58 1011.8
20260506195520 57 358 0.9 2.6 0.00 1.95 0.55 57 1011.8
20260506194520 58 329 0.9 2.6 0.00 1.95 0.55 59 1011.6
20260506193518 58 13 0.9 4.3 0.00 1.95 0.55 59 1011.7
20260506192538 58 343 0.9 5.2 0.00 1.95 0.55 60 1011.7
20260506191538 58 12 0.9 4.3 0.00 1.95 0.55 59 1011.6
20260506190518 59 28 1.7 5.2 0.00 1.95 0.55 57 1011.5
20260506185521 59 39 0.9 2.6 0.00 1.95 0.55 57 1011.2
20260506184558 58 1 1.7 5.2 0.00 1.95 0.55 56 1011.3
20260506183538 58 6 1.7 6.1 0.00 1.95 0.55 56 1011.4
20260506182518 59 5 1.7 7.0 0.00 1.95 0.55 55 1011.6
20260506181538 60 338 0.9 2.6 0.00 1.95 0.55 56 1011.5
20260506180619 60 16 1.7 2.6 0.00 1.95 0.55 58 1011.6
20260506175519 60 21 0.9 2.6 0.00 1.95 0.55 57 1011.5
20260506174519 59 319 1.7 5.2 0.00 1.95 0.55 59 1011.6
20260506173529 59 31 1.7 4.3 0.00 1.95 0.55 60 1011.6
20260506172529 59 15 1.7 2.6 0.00 1.95 0.55 58 1011.6
20260506171539 58 15 1.7 5.2 0.00 1.95 0.55 59 1011.4
20260506170519 58 6 1.7 9.6 0.00 1.95 0.55 59 1011.4
20260506165529 58 62 0.9 2.6 0.00 1.95 0.55 64 1011.4
20260506164529 57 334 0.9 2.6 0.00 1.95 0.55 65 1011.5
20260506163530 56 1 0.9 3.5 0.00 1.95 0.55 63 1011.5
20260506162530 56 349 0.9 2.6 0.00 1.95 0.55 65 1011.6
20260506161530 56 345 0.9 1.7 0.00 1.95 0.55 65 1011.5
20260506160530 54 355 0.9 2.6 0.00 1.95 0.55 69 1011.3
20260506155530 53 31 1.7 3.5 0.00 1.95 0.55 68 1011.3
20260506154517 53 13 0.9 1.7 0.00 1.95 0.55 68 1011.2
20260506153517 52 328 0.9 1.7 0.00 1.95 0.55 72 1011.1
20260506152537 52 52 0.9 1.7 0.00 1.95 0.55 71 1011.0
20260506151517 52 8 0.9 2.6 0.00 1.95 0.55 74 1010.9
20260506150531 51 12 0.9 1.7 0.00 1.95 0.55 75 1010.6
20260506145530 50 36 1.7 3.5 0.00 1.95 0.55 77 1010.8
20260506144551 50 57 1.7 2.6 0.00 1.95 0.55 80 1010.9
20260506143518 49 15 1.7 3.5 0.00 1.95 0.55 83 1011.1
20260506142538 49 63 1.7 2.6 0.00 1.95 0.55 83 1010.6
20260506141518 49 39 1.7 3.5 0.00 1.95 0.55 85 1010.6
20260506140518 48 2 1.7 2.6 0.00 1.95 0.55 89 1010.4
20260506135519 47 14 1.7 2.6 0.00 1.95 0.55 88 1010.2
20260506134518 47 15 1.7 3.5 0.00 1.95 0.55 88 1010.4
20260506133520 47 23 1.7 3.5 0.00 1.95 0.55 89 1010.1
20260506132518 46 360 1.7 2.6 0.00 1.95 0.55 92 1009.9
20260506131518 46 29 1.7 3.5 0.00 1.95 0.55 96 1009.9
20260506130519 46 329 0.9 2.6 0.00 1.95 0.55 96 1010.1
20260506125520 46 323 0.9 2.6 0.00 1.95 0.55 97 1010.1
20260506124519 46 301 0.9 0.9 0.00 1.95 0.55 98 1009.9
20260506123519 46 323 0.9 1.7 0.00 1.95 0.55 99 1009.6
20260506122519 46 330 0.9 1.7 0.00 1.95 0.55 100 1009.0
20260506121520 46 338 0.9 1.7 0.00 1.95 0.55 100 1008.9
20260506120519 46 336 0.9 1.7 0.00 1.95 0.55 100 1008.9
20260506115540 46 299 0.9 1.7 0.00 1.95 0.55 100 1009.1
20260506114520 46 324 0.9 0.9 0.00 1.95 0.55 100 1009.1
20260506113519 46 320 0.9 2.6 0.00 1.95 0.55 100 1009.1
20260506112520 46 279 0.9 1.7 0.00 1.95 0.55 100 1008.8
20260506111521 46 320 0.9 2.6 0.00 1.95 0.55 100 1007.8
20260506110520 46 336 0.9 1.7 0.00 1.95 0.55 100 1007.8
20260506105523 46 5 1.7 5.2 0.00 1.95 0.55 100 1008.1
20260506104520 46 5 0.0 0.9 0.01 1.95 0.55 100 1007.8
20260506103521 46 6 0.9 2.6 0.01 1.95 0.55 100 1008.1
20260506102521 46 349 0.9 1.7 0.01 1.95 0.55 100 1008.0
20260506101521 46 352 0.9 2.6 0.01 1.95 0.55 100 1007.7
20260506100521 46 353 0.9 0.9 0.01 1.95 0.55 100 1007.0
20260506095521 46 2 0.9 1.7 0.01 1.95 0.55 100 1006.9
20260506094521 46 322 0.9 0.9 0.01 1.94 0.54 100 1007.1
20260506093541 46 349 0.9 1.7 0.04 1.94 0.54 100 1006.6
20260506092522 46 26 0.9 1.7 0.07 1.94 0.54 100 1006.9
20260506091522 46 341 0.9 2.6 0.11 1.94 0.54 100 1007.2
20260506090521 46 319 0.9 1.7 0.15 1.94 0.54 100 1006.8
20260506085521 46 3 0.9 1.7 0.15 1.93 0.54 100 1006.7
20260506084542 46 10 0.9 2.6 0.15 1.92 0.53 100 1007.1
20260506083522 46 310 0.9 1.7 0.13 1.90 0.50 100 1007.2
20260506082522 46 291 0.9 2.6 0.09 1.86 0.47 100 1007.0
20260506081522 46 35 1.7 3.5 0.06 1.82 0.43 99 1006.9
20260506080522 46 324 0.9 1.7 0.04 1.79 0.39 99 1006.9
20260506073519 46 2 1.7 6.1 0.12 1.77 0.38 99 1006.4
20260506072519 46 333 2.6 4.3 0.16 1.77 0.38 99 1006.4
20260506071522 47 356 2.6 4.3 0.20 1.77 0.38 99 1006.5
20260506070521 47 332 0.9 3.5 0.22 1.74 0.35 99 1006.4
20260506061523 49 350 1.7 2.6 0.16 1.57 0.17 99 1006.7
20260506060523 49 10 0.9 2.6 0.13 1.53 0.13 99 1006.7
20260506050524 49 14 1.7 3.5 0.01 1.40 0.01 99 1006.6
20260506044524 50 7 0.9 1.7 0.00 1.39 0.00 99 1006.9
20260506043524 50 20 0.9 2.6 0.01 1.39 0.00 99 1006.8
20260506042525 50 42 0.0 0.9 0.03 1.39 0.00 99 1006.9
20260506041524 50 12 0.9 2.6 0.08 1.39 0.00 99 1007.0
20260506040525 50 8 0.9 2.6 0.18 1.39 0.00 99 1006.9
20260506035525 51 10 0.9 2.6 0.25 1.39 1.39 99 1007.2
20260506034519 51 3 0.9 2.6 0.28 1.39 1.39 99 1007.3
20260506033520 51 0 0.9 4.3 0.28 1.39 1.39 98 1007.4
20260506032519 52 6 0.9 4.3 0.29 1.37 1.37 98 1007.6
20260506031519 53 360 0.9 2.6 0.27 1.32 1.32 97 1007.7
20260506030520 55 280 0.9 2.6 0.21 1.22 1.22 97 1007.9
20260506025517 57 98 0.9 3.5 0.19 1.15 1.15 97 1007.7
20260506024537 59 240 1.7 4.3 0.20 1.11 1.11 98 1007.3
20260506023518 59 249 0.9 3.5 0.24 1.11 1.11 99 1007.2
20260506022520 59 214 0.9 3.5 0.24 1.08 1.08 99 1007.2
20260506021521 60 174 0.0 0.9 0.26 1.05 1.05 99 1007.2